EW6086 Weather Reports


time (UTC)temp
F
wind
direction
speed
knots
gust
knots
rain 1hr
in
rain 24hr
in
rain mn
in
humidity
%
barometer
mb
20260506232457 83 90 0.0 0.0 0.20 1.42 3.02 85 1007.5
20260506231958 83 90 0.0 0.0 0.14 1.36 2.94 85 1007.4
20260506231455 83 90 0.0 0.0 0.12 1.34 2.91 85 1007.4
20260506230956 83 90 0.0 0.0 0.07 1.29 2.86 85 1007.4
20260506230456 83 90 0.0 0.0 0.07 1.29 2.86 85 1007.3
20260506225957 83 90 0.0 0.0 0.07 1.29 2.86 85 1007.2
20260506225453 83 90 0.0 0.0 0.07 1.28 2.85 85 1007.2
20260506225223 83 90 0.0 0.0 0.08 1.28 2.85 85 1007.2
20260506224452 83 90 0.0 0.0 0.09 1.26 2.83 85 1007.2
20260506223951 83 90 0.0 0.0 0.11 1.26 2.83 85 1007.2
20260506223453 83 90 0.0 0.0 0.08 1.23 2.81 85 1007.3
20260506222953 83 90 0.0 0.0 0.13 1.23 2.80 85 1007.2
20260506222451 83 90 0.0 0.0 0.17 1.22 2.80 85 1007.2
20260506221951 83 90 0.0 0.0 0.22 1.22 2.79 86 1007.2
20260506221454 82 90 0.0 0.0 0.26 1.22 2.79 86 1007.1
20260506220949 82 90 0.0 0.0 0.30 1.22 2.79 86 1007.2
20260506220447 82 90 0.0 0.0 0.36 1.22 2.79 86 1007.3
20260506215947 82 90 0.0 0.0 0.48 1.22 2.79 86 1007.2
20260506215448 82 90 0.0 0.0 0.51 1.21 2.78 86 1007.2
20260506214947 82 90 0.0 0.0 0.58 1.20 2.77 86 1007.2
20260506214719 82 90 0.0 0.0 0.61 1.17 2.74 86 1007.3
20260506213947 82 90 0.0 0.0 0.65 1.15 2.72 86 1007.3
20260506213447 82 90 0.0 0.0 0.67 1.15 2.72 86 1007.4
20260506212949 81 90 0.0 0.0 0.65 1.10 2.67 86 1007.4
20260506212444 81 90 0.0 0.0 0.75 1.05 2.63 86 1007.3
20260506211941 81 90 0.0 0.0 0.75 1.00 2.57 86 1007.3
20260506211714 81 90 0.0 0.0 0.73 0.96 2.53 86 1007.3
20260506210942 81 90 0.0 0.0 0.69 0.92 2.49 86 1007.3
20260506210442 82 90 0.0 0.0 0.64 0.86 2.43 86 1007.3
20260506205942 82 90 0.0 0.0 0.52 0.74 2.33 85 1007.4
20260506205441 82 90 0.0 0.0 0.46 0.68 2.27 85 1007.5
20260506204942 83 90 0.0 0.0 0.40 0.62 2.19 85 1007.5
20260506204441 83 90 0.0 0.0 0.34 0.56 2.13 85 1007.6
20260506204214 83 90 0.0 0.0 0.28 0.50 2.07 84 1007.6
20260506203713 84 90 0.0 0.0 0.26 0.48 2.05 84 1007.6
20260506202435 85 90 0.0 0.0 0.10 0.30 1.90 84 1007.7
20260506202201 85 90 0.0 0.0 0.06 0.25 1.83 84 1007.7
20260506201658 85 90 0.0 0.0 0.04 0.23 1.81 85 1007.8
20260506200918 85 90 0.0 0.0 0.05 0.23 1.80 85 1007.8
20260506200412 84 90 0.0 0.0 0.04 0.22 1.79 86 1007.8
20260506195906 83 90 0.0 0.0 0.04 0.22 1.79 87 1007.9
20260506195400 83 90 0.0 0.0 0.04 0.22 1.79 87 1007.9
20260506194854 83 90 0.0 0.0 0.04 0.22 1.79 87 1007.9
20260506194347 83 90 0.0 0.0 0.04 0.22 1.79 88 1008.0
20260506193842 82 90 0.0 0.0 0.04 0.22 1.79 89 1008.1
20260506193336 82 90 0.0 0.0 0.04 0.22 1.79 89 1008.1
20260506192830 81 90 0.0 0.0 0.03 0.21 1.78 90 1008.2
20260506192323 82 90 0.0 0.0 0.01 0.19 1.77 90 1008.2
20260506191818 81 90 0.0 0.0 0.01 0.19 1.76 90 1008.4
20260506191312 81 90 0.0 0.0 0.01 0.19 1.76 90 1008.4
20260506190806 81 90 0.0 0.0 0.00 0.18 1.75 90 1008.5
20260506190300 80 90 0.0 0.0 0.00 0.18 1.75 90 1008.6
20260506185754 80 90 0.0 0.0 0.02 0.18 1.75 90 1008.6
20260506185247 79 90 0.0 0.0 0.02 0.18 1.75 90 1008.8
20260506184742 79 90 0.0 0.0 0.02 0.18 1.75 89 1008.9
20260506184236 79 90 0.0 0.0 0.02 0.18 1.75 89 1008.9
20260506183730 79 90 0.0 0.0 0.02 0.18 1.75 89 1009.0
20260506183224 79 90 0.0 0.0 0.03 0.18 1.75 89 1009.0
20260506182718 79 90 0.0 0.0 0.04 0.18 1.75 89 1009.1
20260506182212 79 90 0.0 0.0 0.07 0.18 1.75 89 1009.2
20260506181708 79 90 0.0 0.0 0.14 0.18 1.75 89 1009.2
20260506181200 80 90 0.0 0.0 0.14 0.18 1.75 89 1009.3
20260506180653 80 90 0.0 0.0 0.16 0.18 1.75 89 1009.3
20260506180148 80 90 0.0 0.0 0.16 0.18 1.75 89 1009.3
20260506175642 80 90 0.0 0.0 0.14 0.16 1.73 89 1009.3
20260506175410 80 90 0.0 0.0 0.14 0.16 1.73 89 1009.2
20260506174630 80 90 0.0 0.0 0.14 0.16 1.73 89 1009.2
20260506174124 80 90 0.0 0.0 0.14 0.16 1.73 90 1009.3
20260506173617 80 90 0.0 0.0 0.14 0.16 1.73 90 1009.3
20260506173112 80 90 0.0 0.0 0.13 0.15 1.72 90 1009.3
20260506172836 80 90 0.0 0.0 0.11 0.12 1.70 90 1009.3
20260506172331 80 90 0.0 0.0 0.08 0.08 1.65 90 1009.3
20260506171553 80 90 0.0 0.0 0.04 0.04 1.61 90 1009.2
20260506171048 80 90 0.0 0.0 0.04 0.04 1.61 90 1009.1
20260506170542 79 90 0.0 0.0 0.02 0.02 1.59 90 1009.2
20260506165800 78 90 0.0 0.0 0.02 0.02 1.59 90 1009.3
20260506165024 78 90 0.0 0.0 0.02 0.02 1.59 90 1009.3
20260506164518 78 90 0.0 0.0 0.02 0.02 1.59 90 1009.2
20260506164011 78 90 0.0 0.0 0.02 0.02 1.59 90 1009.3
20260506163507 78 90 0.0 0.0 0.02 0.02 1.59 89 1009.2
20260506162959 78 90 0.0 0.0 0.02 0.02 1.59 89 1009.2
20260506162454 78 90 0.0 0.0 0.01 0.01 1.58 89 1009.1
20260506161950 78 90 0.0 0.0 0.00 0.00 1.57 89 1009.0
20260506161446 78 90 0.0 0.0 0.00 0.00 1.57 89 1009.0
20260506160948 78 90 0.0 0.0 0.00 0.00 1.57 89 1009.0
20260506155855 78 90 0.0 0.0 0.37 7.79 1.51 89 1008.7
20260506155341 78 90 0.0 0.0 0.40 7.79 1.51 89 1008.7
20260506154839 78 90 0.0 0.0 0.45 7.79 1.51 88 1008.6
20260506154608 78 90 0.0 0.0 0.49 7.79 1.51 88 1008.7
20260506153835 79 90 0.0 0.0 0.72 7.79 1.51 88 1008.7
20260506153605 79 90 0.0 0.0 0.84 7.79 1.51 88 1008.6
20260506152830 79 90 0.0 0.0 1.02 7.79 1.51 87 1008.5
20260506152601 79 90 0.0 0.0 1.14 7.79 1.51 87 1008.4
20260506151829 79 90 0.0 0.0 1.18 7.75 1.48 87 1008.3
20260506151329 80 90 0.0 0.0 1.28 7.72 1.44 87 1008.2
20260506150827 80 90 0.0 0.0 1.24 7.63 1.35 86 1008.2
20260506150325 80 90 0.0 0.0 1.21 7.58 1.30 87 1008.1
20260506145823 80 90 0.0 0.0 1.05 7.42 1.15 87 1008.0
20260506145322 80 90 0.0 0.0 1.03 7.39 1.11 87 1008.1
20260506144825 80 90 0.0 0.0 1.00 7.34 1.06 87 1008.0
20260506144324 80 90 0.0 0.0 0.99 7.30 1.02 87 1008.0
20260506143823 80 90 0.0 0.0 0.76 7.07 0.87 87 1007.8
20260506143324 79 90 0.0 0.0 0.64 6.95 0.67 88 1007.8
20260506142819 79 90 0.0 0.0 0.46 6.77 0.50 88 1007.8
20260506142316 79 90 0.0 0.0 0.34 6.65 0.38 88 1007.8
20260506141816 79 90 0.0 0.0 0.26 6.57 0.29 89 1007.8
20260506141316 79 90 0.0 0.0 0.13 6.44 0.17 89 1007.9
20260506141048 79 90 0.0 0.0 0.08 6.39 0.11 89 1008.0
20260506140314 78 90 0.0 0.0 0.06 6.37 0.09 89 1008.0
20260506135816 78 90 0.0 0.0 0.06 6.37 0.09 89 1008.0
20260506135315 78 90 0.0 0.0 0.05 6.36 0.08 89 1008.0
20260506134814 78 90 0.0 0.0 0.03 6.34 0.06 89 1007.9
20260506134316 78 90 0.0 0.0 0.00 6.31 0.04 89 1008.0
20260506133813 78 90 0.0 0.0 0.00 6.31 0.03 89 1008.0
20260506133311 78 90 0.0 0.0 0.00 6.31 0.03 89 1007.9
20260506132811 78 90 0.0 0.0 0.00 6.31 0.03 89 1007.8
20260506132310 78 90 0.0 0.0 0.00 6.31 0.03 89 1007.8
20260506131811 78 90 0.0 0.0 0.00 6.31 0.03 89 1007.8
20260506131311 78 90 0.0 0.0 0.00 6.31 0.03 90 1007.9
20260506130828 78 90 0.0 0.0 0.00 6.31 0.03 90 1007.8
20260506130315 78 90 0.0 0.0 0.00 6.31 0.03 90 1007.9
20260506125812 78 90 0.0 0.0 0.00 6.31 0.03 90 1007.8
20260506125307 78 90 0.0 0.0 0.00 6.31 0.03 90 1007.9
20260506124808 78 90 0.0 0.0 0.00 6.31 0.03 90 1007.8
20260506124307 78 90 0.0 0.0 0.00 6.31 0.03 90 1007.8
20260506123806 78 90 0.0 0.0 0.00 6.31 0.03 90 1007.7
20260506123308 78 90 0.0 0.0 0.00 6.31 0.03 90 1007.7
20260506122807 78 90 0.0 0.0 0.00 6.31 0.03 90 1007.7
20260506122308 77 90 0.0 0.0 0.00 6.31 0.03 90 1007.7
20260506121805 77 90 0.0 0.0 0.00 6.31 0.03 90 1007.6
20260506121538 77 90 0.0 0.0 0.00 6.31 0.03 90 1007.6
20260506121044 77 90 0.0 0.0 0.00 6.31 0.03 90 1007.6
20260506120254 77 90 0.0 0.0 0.00 6.31 0.03 90 1007.5
20260506115749 77 90 0.0 0.0 0.00 6.31 0.03 90 1007.5
20260506114736 77 90 0.0 0.0 0.00 6.31 0.03 89 1007.4
20260506114501 77 90 0.0 0.0 0.00 6.31 0.03 89 1007.3
20260506113724 77 90 0.0 0.0 0.00 6.31 0.03 89 1007.3
20260506113218 77 90 0.0 0.0 0.00 6.31 0.03 89 1007.3
20260506112712 77 90 0.0 0.0 0.00 6.31 0.03 89 1007.3
20260506112207 77 90 0.0 0.0 0.00 6.31 0.03 89 1007.3
20260506111700 77 90 0.0 0.0 0.00 6.31 0.03 89 1007.3
20260506111154 78 90 0.0 0.0 0.00 6.31 0.03 89 1007.3
20260506110648 78 90 0.0 0.0 0.00 6.31 0.03 89 1007.3
20260506110145 78 90 0.0 0.0 0.00 6.31 0.03 89 1007.4
20260506105636 77 90 0.0 0.0 0.00 6.31 0.03 89 1007.4
20260506105130 78 90 0.0 0.0 0.00 6.31 0.03 89 1007.5
20260506104624 78 90 0.0 0.0 0.00 6.31 0.03 89 1007.5
20260506104118 78 90 0.0 0.0 0.00 6.31 0.03 89 1007.3
20260506103613 77 90 0.0 0.0 0.00 6.31 0.03 89 1007.3
20260506103106 78 90 0.0 0.0 0.00 6.31 0.03 89 1007.3
20260506102831 77 90 0.0 0.0 0.00 6.31 0.03 89 1007.3
20260506102055 77 90 0.0 0.0 0.00 6.31 0.03 89 1007.4
20260506101549 77 90 0.0 0.0 0.00 6.31 0.03 89 1007.4
20260506101042 77 90 0.0 0.0 0.00 6.31 0.03 89 1007.3
20260506100809 77 90 0.0 0.0 0.00 6.31 0.03 89 1007.2
20260506100032 77 90 0.0 0.0 0.00 6.31 0.03 89 1007.1
20260506095524 77 90 0.0 0.0 0.00 6.31 0.03 89 1007.0
20260506095018 77 90 0.0 0.0 0.00 6.31 0.03 89 1007.0
20260506094513 77 90 0.0 0.0 0.00 6.31 0.03 89 1007.1
20260506094007 77 90 0.0 0.0 0.00 6.31 0.03 89 1007.1
20260506093500 77 90 0.0 0.0 0.00 6.31 0.03 89 1007.0
20260506092955 77 90 0.0 0.0 0.00 6.31 0.03 89 1007.0
20260506092449 77 90 0.0 0.0 0.00 6.31 0.03 89 1007.0
20260506092214 77 90 0.0 0.0 0.00 6.31 0.03 89 1006.9
20260506091436 77 90 0.0 0.0 0.00 6.31 0.03 89 1007.0
20260506090931 77 90 0.0 0.0 0.00 6.31 0.03 89 1007.0
20260506090425 77 90 0.0 0.0 0.00 6.31 0.03 89 1006.9
20260506085918 77 90 0.0 0.0 0.00 6.31 0.03 89 1007.0
20260506085413 77 90 0.0 0.0 0.00 6.31 0.03 89 1007.1
20260506084907 77 90 0.0 0.0 0.00 6.31 0.03 89 1007.0
20260506084401 77 90 0.0 0.0 0.00 6.31 0.03 89 1006.9
20260506083349 77 90 0.0 0.0 0.00 6.31 0.03 89 1007.0
20260506082842 77 90 0.0 0.0 0.00 6.31 0.03 89 1007.1
20260506082336 77 90 0.0 0.0 0.00 6.31 0.03 89 1007.1
20260506081831 77 90 0.0 0.0 0.00 6.31 0.03 89 1007.0
20260506081324 77 90 0.0 0.0 0.00 6.31 0.03 89 1007.0
20260506080818 77 90 0.0 0.0 0.00 6.31 0.03 89 1007.1
20260506080312 77 90 0.0 0.0 0.00 6.31 0.03 89 1007.3
20260506073237 78 90 0.0 0.0 0.00 6.31 0.03 88 1007.5
20260506072730 78 90 0.0 0.0 0.00 6.31 0.03 88 1007.6
20260506072224 78 90 0.0 0.0 0.00 6.31 0.03 88 1007.6
20260506071719 78 90 0.0 0.0 0.01 6.31 0.03 88 1007.7
20260506071213 78 90 0.0 0.0 0.01 6.31 0.03 88 1008.0
20260506070943 78 90 0.0 0.0 0.01 6.31 0.03 88 1008.0
20260506070209 78 90 0.0 0.0 0.01 6.31 0.03 88 1008.0
20260506062208 78 90 0.0 0.0 0.02 6.31 0.03 88 1008.2
20260506061707 78 90 0.0 0.0 0.01 6.30 0.02 88 1008.2
20260506061208 78 90 0.0 0.0 0.01 6.30 0.02 88 1008.2
20260506060708 78 90 0.0 0.0 0.01 6.30 0.02 88 1008.2
20260506060208 78 90 0.0 0.0 0.01 6.30 0.02 88 1008.2
20260506051220 78 90 0.0 0.0 0.15 6.29 0.01 87 1007.9
20260506050708 78 90 0.0 0.0 0.15 6.29 0.01 88 1007.9
20260506050209 78 90 0.0 0.0 0.18 6.29 0.01 88 1007.9
20260506044437 78 90 0.0 0.0 0.48 6.25 6.63 88 1007.8
20260506043937 78 90 0.0 0.0 0.49 6.24 6.63 87 1007.8
20260506043205 78 90 0.0 0.0 0.46 6.19 6.57 88 1007.7
20260506042704 78 90 0.0 0.0 0.47 6.19 6.57 88 1007.7
20260506042204 78 90 0.0 0.0 0.45 6.17 6.56 87 1007.8
20260506041704 78 90 0.0 0.0 0.48 6.16 6.54 87 1007.7
20260506041206 78 90 0.0 0.0 0.50 6.14 6.52 87 1007.8
20260506040706 78 90 0.0 0.0 0.50 6.14 6.52 87 1007.8
20260506040205 78 90 0.0 0.0 0.47 6.11 6.49 87 1007.9
20260506035705 78 90 0.0 0.0 0.41 6.02 6.42 87 1007.8
20260506035203 78 90 0.0 0.0 0.32 5.90 6.29 87 1007.7
20260506034933 78 90 0.0 0.0 0.24 5.82 6.22 87 1007.7
20260506034200 78 90 0.0 0.0 0.21 5.77 6.15 87 1007.7
20260506033658 78 90 0.0 0.0 0.21 5.75 6.14 87 1007.7
20260506033158 78 90 0.0 0.0 0.21 5.73 6.12 87 1007.7
20260506032924 78 90 0.0 0.0 0.22 5.72 6.10 87 1007.6
20260506032147 78 90 0.0 0.0 0.26 5.72 6.10 87 1007.5
20260506031911 78 90 0.0 0.0 0.21 5.67 6.06 87 1007.5
20260506031134 78 90 0.0 0.0 0.19 5.64 6.02 87 1007.5
20260506030629 78 90 0.0 0.0 0.23 5.64 6.02 88 1007.4
20260506030123 78 90 0.0 0.0 0.27 5.64 6.02 88 1007.3
20260506025617 78 90 0.0 0.0 0.27 5.61 5.99 88 1007.2
20260506025110 78 90 0.0 0.0 0.28 5.58 5.96 88 1007.2
20260506024604 78 90 0.0 0.0 0.36 5.58 5.96 88 1007.1
20260506024058 78 90 0.0 0.0 0.41 5.56 5.94 88 1007.0
20260506023552 78 90 0.0 0.0 0.42 5.54 5.92 88 1006.9
20260506023046 78 90 0.0 0.0 0.41 5.52 5.90 88 1007.0
20260506022541 78 90 0.0 0.0 0.40 5.49 5.88 88 1006.9
20260506022036 78 90 0.0 0.0 0.39 5.46 5.84 88 1006.8
20260506021542 78 90 0.0 0.0 0.41 5.46 5.84 88 1006.9
20260506021023 78 90 0.0 0.0 0.41 5.45 5.83 88 1006.7
20260506020516 78 90 0.0 0.0 0.42 5.41 5.79 88 1006.6
20260506020239 78 90 0.0 0.0 0.48 5.37 5.75 88 1006.5
20260506015502 78 90 0.0 0.0 0.45 5.31 5.69 87 1006.5
20260506014957 78 90 0.0 0.0 0.46 5.29 5.67 87 1006.5
20260506014721 78 90 0.0 0.0 0.45 5.18 5.60 87 1006.5
20260506013945 78 90 0.0 0.0 0.48 5.15 5.53 87 1006.5
20260506013439 78 90 0.0 0.0 0.53 5.12 5.50 87 1006.4
20260506012933 78 90 0.0 0.0 0.69 5.11 5.49 87 1006.3
20260506012427 78 90 0.0 0.0 0.77 5.08 5.47 87 1006.2
20260506011921 78 90 0.0 0.0 0.86 5.05 5.43 87 1006.2
20260506011414 78 90 0.0 0.0 0.97 5.05 5.43 87 1006.2
20260506010908 78 90 0.0 0.0 0.93 5.01 5.39 87 1006.1
20260506010415 78 90 0.0 0.0 0.93 4.98 5.36 87 1006.0
20260506005857 78 90 0.0 0.0 0.94 4.89 5.27 87 1005.8
20260506005350 78 90 0.0 0.0 0.93 4.84 5.22 86 1005.9
20260506005117 78 90 0.0 0.0 0.98 4.80 5.18 86 1005.6
20260506004338 78 90 0.0 0.0 0.92 4.73 5.11 86 1005.6
20260506003833 78 90 0.0 0.0 0.82 4.60 5.04 86 1005.7
20260506003326 78 90 0.0 0.0 0.79 4.55 4.93 86 1005.7
20260506002820 79 90 0.0 0.0 0.67 4.42 4.80 86 1005.6
20260506002545 79 90 0.0 0.0 0.56 4.29 4.67 86 1005.6
20260506001302 79 90 0.0 0.0 0.45 4.08 4.46 86 1005.6
20260506001027 79 90 0.0 0.0 0.48 4.05 4.43 86 1005.7
20260506000251 79 90 0.0 0.0 0.52 4.05 4.43 86 1005.7
20260505235744 79 90 0.0 0.0 0.45 3.94 4.33 86 1005.7
20260505235510 80 90 0.0 0.0 0.42 3.90 4.29 85 1005.6
20260505234732 80 90 0.0 0.0 0.36 3.82 4.20 85 1005.7
20260505234457 80 90 0.0 0.0 0.36 3.80 4.18 85 1005.7
20260505233720 80 90 0.0 0.0 0.37 3.78 4.16 85 1005.8
20260505233215 80 90 0.0 0.0 0.41 3.76 4.14 85 1005.8